Wind_Speed
3 3 4 4 4 4 4 4 4 4 4 4 4 4 4 5 6 6 7 7 7 7 8 8 8 8 9 9 9 9 10 10 10 10 10 10 9 9 9 9 9 9 9 9 9 8 8 8 7
4 4 4 4 4 4 4 3 3 4 4 4 4 4 4 4 4 5 6 6 6 7 7 8 8 8 9 9 10 10 10 11 11 11 11 11 11 10 10 10 10 10 10 10 10 10 9 9 9
4 4 4 4 4 4 4 3 3 3 3 3 3 4 4 4 4 5 5 5 5 5 6 7 7 8 9 9 10 10 11 11 11 12 12 11 11 11 11 11 11 11 12 11 11 10 10 9 10
4 4 4 4 4 3 4 3 2 2 3 3 3 3 3 4 4 4 5 5 5 4 5 5 6 7 8 9 10 10 11 11 11 11 12 12 11 11 11 11 11 11 12 13 12 11 11 10 10
4 4 4 4 3 3 3 3 2 2 3 3 3 3 3 3 4 4 4 4 4 4 4 5 5 6 7 8 9 10 10 10 10 11 11 12 12 12 12 12 12 12 12 12 12 12 12 11 11
4 4 4 4 4 3 3 3 3 3 3 3 2 2 3 3 3 3 3 4 4 4 4 4 5 6 6 7 8 8 9 9 10 10 11 12 12 12 12 11 12 12 11 11 12 12 12 12 12
3 4 4 4 4 3 3 3 3 3 3 2 2 2 3 2 3 3 3 4 4 4 4 4 5 6 6 7 8 8 9 9 10 10 11 11 12 12 12 11 11 11 11 11 12 12 11 12 12
3 4 4 4 4 4 4 4 4 3 3 3 3 3 3 3 3 3 3 3 3 3 3 4 5 5 6 7 7 8 8 9 10 11 11 11 11 11 12 12 11 11 11 11 11 11 11 11 11
4 4 4 4 3 4 4 4 4 4 3 3 3 3 4 3 3 3 3 2 3 3 3 4 4 5 5 6 6 7 7 8 10 10 11 11 11 12 12 11 12 12 11 11 11 11 11 11 10
3 4 4 4 3 4 4 4 4 5 4 4 3 3 4 4 3 3 3 3 3 3 3 3 4 5 5 5 6 6 6 7 8 9 10 11 11 12 12 12 12 11 11 11 11 11 11 11 11
3 3 4 4 4 4 4 5 4 4 4 4 4 4 4 4 3 3 3 3 3 3 3 4 4 4 4 5 5 5 5 6 6 7 8 9 10 10 11 12 12 12 12 12 12 12 11 12 12
4 4 4 4 4 4 4 5 5 5 4 4 4 4 4 3 3 3 3 3 4 4 4 4 3 3 4 4 4 5 5 5 6 6 7 8 9 10 10 11 12 12 12 12 11 11 12 12 12
4 5 5 5 5 5 5 5 5 5 5 4 4 4 4 4 4 3 3 4 4 4 4 4 3 4 4 4 4 5 5 6 6 6 7 7 8 9 10 11 12 12 12 12 12 12 12 13 13
5 5 6 6 5 5 5 5 5 5 5 4 4 4 4 4 4 4 4 4 4 4 4 4 4 4 4 5 5 5 6 6 6 6 7 7 8 9 10 10 11 11 11 11 12 12 12 12 12
5 6 6 5 6 6 6 5 5 5 5 5 5 5 5 5 4 4 4 4 4 4 4 4 4 5 5 5 5 6 6 6 7 7 7 8 8 8 8 8 10 11 11 11 11 11 12 12 12
6 6 7 6 6 6 6 6 6 6 6 6 5 5 5 6 5 5 5 4 5 5 4 5 5 5 5 5 5 6 6 7 7 7 7 7 8 8 8 8 9 10 10 11 11 12 12 12 13
6 7 7 7 6 6 6 6 7 6 6 6 6 6 6 6 6 6 6 5 5 5 5 5 5 5 5 5 5 6 6 6 6 6 7 7 7 8 9 9 9 9 10 10 11 12 12 13 13
7 7 8 9 8 8 7 7 7 7 7 7 7 7 7 7 7 6 6 6 6 6 6 6 5 5 5 5 6 6 5 5 5 6 6 6 7 7 8 9 9 9 9 10 11 11 12 12 13
8 8 9 9 9 8 8 8 8 8 8 8 7 7 8 7 7 7 7 6 6 6 6 6 6 6 6 6 5 5 5 6 6 6 6 6 7 7 8 9 9 9 10 10 11 12 11 12 12
9 9 9 9 9 8 8 9 9 9 9 8 8 7 7 8 8 8 8 7 7 7 7 6 6 6 6 6 6 6 6 6 6 6 7 7 7 8 8 9 10 10 10 10 11 11 12 12 12
9 9 9 9 9 9 9 9 9 9 9 9 8 7 7 7 7 8 8 7 7 7 8 7 7 7 7 7 7 7 7 7 7 7 8 8 9 9 9 10 10 10 10 11 11 12 12 12 13
10 9 9 9 9 9 9 9 9 9 9 9 8 7 7 8 8 9 8 8 8 7 8 8 7 7 7 7 7 7 7 7 8 8 9 9 10 10 11 11 12 11 12 12 12 12 13 13 13
10 10 10 10 9 9 10 10 9 9 8 8 8 8 8 9 9 9 9 8 8 8 8 8 8 8 8 8 8 8 8 8 8 9 9 10 10 10 11 12 12 12 13 13 13 13 13 14 14
11 11 11 11 10 10 10 10 9 9 9 9 9 9 9 9 10 10 10 9 9 9 9 9 9 9 9 9 9 9 9 9 10 10 10 11 11 11 12 12 12 13 13 14 14 14 15 15 15
11 11 11 11 12 11 11 11 11 10 10 10 10 10 9 10 11 10 10 10 10 10 10 10 10 10 10 10 10 11 11 11 11 11 11 11 12 12 12 13 13 13 14 14 14 15 15 15 15
11 11 11 11 11 12 11 11 11 11 11 11 11 10 10 10 11 11 11 11 11 11 11 11 11 10 11 11 11 12 12 11 11 11 12 12 12 13 13 13 13 13 14 14 15 15 15 15 15
12 11 12 12 12 12 12 11 12 12 12 12 12 12 11 11 12 12 12 12 12 12 12 12 12 12 12 12 12 12 12 12 12 12 13 13 13 13 13 13 13 13 14 14 14 15 15 15 15
13 13 13 13 13 13 12 12 11 12 12 13 13 13 13 13 13 13 13 13 13 14 14 14 13 13 12 12 13 13 13 13 13 14 14 13 13 13 13 13 14 14 14 15 15 15 15 16 16
14 14 14 14 15 14 14 13 12 12 13 13 14 14 14 14 14 14 14 15 15 15 14 14 14 14 13 13 14 14 14 14 14 15 15 15 15 15 15 14 15 15 15 16 16 17 17 17 17
16 16 16 16 16 16 15 14 14 13 14 14 15 15 15 16 16 16 15 15 15 15 14 14 14 15 15 15 15 15 15 15 15 16 16 16 16 16 16 16 15 15 15 16 16 17 17 18 18
Wind_Direction
347 346 344 341 341 327 304 293 280 275 269 265 266 266 257 252 250 247 245 247 245 243 244 242 236 236 236 235 233 234 233 231 230 228 225 220 219 220 218 214 210 207 209 211 211 212 211 207 205
349 346 340 340 341 331 316 304 290 279 269 266 268 268 260 255 251 249 246 247 246 245 246 244 241 241 241 239 235 234 233 234 233 229 226 222 221 222 221 217 218 215 215 215 214 215 216 215 214
354 350 349 347 342 325 319 313 299 283 274 269 270 272 268 262 255 252 252 253 250 246 250 249 247 248 248 241 238 236 236 235 233 228 226 224 222 222 223 221 223 219 217 217 218 215 218 221 221
356 357 356 351 339 327 320 318 305 285 286 284 283 280 272 263 259 254 251 252 252 255 256 254 251 253 251 246 241 238 238 238 235 229 225 224 223 222 221 222 223 225 223 224 226 223 227 228 228
357 360 1 357 343 331 330 332 323 302 298 296 294 290 278 266 264 259 252 255 258 264 261 258 257 259 255 248 244 240 238 234 231 226 222 223 224 224 222 224 226 227 226 226 226 227 232 233 234
3 3 4 358 351 345 344 341 335 325 310 302 302 292 282 273 263 260 255 258 262 266 261 262 258 257 253 245 242 240 241 235 228 225 222 224 228 226 226 225 225 227 228 229 228 228 231 233 233
9 8 4 358 354 353 348 341 338 331 317 311 305 294 286 276 262 260 261 260 258 259 259 260 255 257 254 245 240 241 240 236 231 225 222 225 229 230 228 225 225 227 227 229 231 233 235 236 235
15 11 8 3 355 352 351 349 350 339 321 309 299 296 289 279 267 259 257 258 259 259 261 258 257 256 252 248 246 243 241 240 235 227 225 228 231 230 231 229 228 230 230 230 232 235 238 239 240
20 14 10 4 357 355 354 352 349 341 327 313 299 291 287 278 272 263 261 263 264 264 263 265 261 260 255 252 249 248 245 240 234 230 230 231 233 232 232 232 232 233 235 233 235 238 239 242 242
13 6 2 0 358 354 351 350 347 338 330 318 305 293 285 279 272 266 270 270 270 266 271 275 267 262 260 257 254 251 245 238 235 232 231 231 234 235 235 237 233 231 233 234 236 238 240 242 242
355 353 356 356 348 348 348 348 346 338 330 325 315 304 290 279 273 269 273 272 272 272 280 284 274 266 264 260 253 248 243 238 238 234 233 234 234 236 239 238 234 232 234 236 238 242 242 242 242
335 336 342 341 339 339 341 345 345 339 332 331 326 318 300 288 274 274 279 277 275 274 278 279 277 272 268 265 253 248 245 244 243 238 236 237 238 238 236 237 236 238 239 239 239 244 243 242 244
327 325 326 327 330 330 331 334 335 331 331 330 329 328 312 298 282 275 273 272 270 269 273 275 278 274 268 262 253 250 247 247 246 244 242 242 245 246 246 243 243 244 243 242 241 244 246 244 244
315 318 321 322 322 325 324 326 326 321 322 321 320 318 314 303 293 285 277 273 270 266 270 274 275 275 269 259 252 248 244 248 251 253 253 253 253 254 254 251 244 244 243 243 244 245 247 245 243
310 310 312 314 313 317 320 322 318 317 317 314 312 310 307 300 291 286 285 283 278 274 272 272 272 272 269 262 251 248 249 251 252 254 256 255 256 255 256 253 247 245 242 243 245 247 247 245 245
303 303 304 304 306 310 312 315 313 312 309 307 305 304 303 298 287 285 285 286 282 278 276 274 274 272 269 263 256 256 255 255 255 255 255 256 257 256 259 259 257 251 246 245 245 245 248 250 251
300 301 298 295 298 301 301 304 305 305 305 303 303 300 300 297 287 286 283 282 282 277 275 276 276 275 275 263 261 264 261 257 254 252 253 257 258 257 257 260 260 258 251 248 245 246 248 251 252
292 291 290 287 287 291 292 294 296 299 301 299 297 295 296 293 287 284 284 282 281 279 276 275 277 279 279 267 262 264 260 255 253 256 258 261 261 257 256 257 257 258 258 256 253 253 252 251 253
284 287 287 286 284 286 287 287 290 295 295 296 294 291 289 288 284 281 283 281 280 278 278 276 278 280 278 270 265 265 259 255 254 257 260 264 266 260 259 261 260 259 259 258 257 257 256 255 255
282 284 284 283 281 283 285 285 288 290 291 291 289 286 284 285 283 278 280 280 278 277 278 275 277 281 276 268 266 269 267 261 260 260 259 261 265 264 263 264 266 264 263 261 260 257 256 257 258
282 282 282 281 280 281 285 287 287 286 285 284 282 279 279 280 282 281 279 278 278 278 278 276 278 280 277 269 266 269 268 265 262 264 266 264 264 263 265 268 270 266 264 262 261 258 258 259 260
281 282 282 280 279 281 284 286 286 284 281 279 277 274 274 276 277 277 274 277 276 276 275 276 276 276 274 272 271 269 266 266 266 267 268 269 268 267 267 268 271 269 265 264 261 260 260 260 262
277 281 284 284 281 280 282 283 281 282 279 275 274 274 274 274 274 275 273 275 276 279 277 277 278 279 277 273 272 271 271 271 272 272 271 272 272 270 270 271 272 269 267 264 262 262 262 263 264
276 280 282 281 281 280 280 278 276 279 278 276 275 273 272 271 270 271 270 271 277 280 280 278 277 279 280 279 277 276 276 275 275 275 276 276 276 275 275 275 274 271 267 266 265 264 264 264 266
274 277 282 284 283 280 274 272 272 273 272 272 274 277 274 272 268 269 272 272 276 277 277 277 275 277 279 280 280 282 280 278 276 276 277 277 279 280 279 278 276 275 270 267 265 266 266 267 268
274 272 275 279 281 279 275 271 273 272 269 269 272 275 274 274 272 271 271 270 272 273 274 275 276 276 278 279 281 281 280 278 277 278 280 280 280 280 280 281 278 275 272 270 267 266 269 271 273
269 268 272 275 280 282 280 277 273 273 270 269 271 273 274 272 272 270 268 267 268 270 272 273 275 278 279 279 280 280 279 279 280 280 281 282 281 280 280 282 280 277 273 271 269 268 269 272 274
265 267 271 275 280 283 280 277 272 270 270 271 270 270 271 271 271 269 266 267 268 269 272 274 275 275 276 278 279 280 279 279 279 279 279 279 279 279 280 281 280 277 275 271 268 271 271 272 272
264 267 271 272 275 277 278 274 271 270 271 272 272 270 268 269 270 269 267 266 266 267 270 274 275 274 275 277 279 280 281 279 277 276 276 275 276 278 278 279 278 277 276 274 272 272 273 272 272
264 266 268 270 273 274 274 270 271 270 270 272 273 271 270 270 269 269 266 265 265 265 267 270 274 276 276 278 279 280 281 281 278 276 273 273 275 277 279 281 279 278 277 277 276 274 273 272 272
Height
5874 5873 5873 5873 5873 5873 5871 5871 5871 5870 5870 5870 5869 5869 5869 5869 5870 5872 5869 5868 5868 5868 5868 5868 5869 5869 5870 5870 5871 5871 5871 5872 5872 5873 5873 5873 5874 5875 5875 5876 5876 5877 5878 5878 5879 5880 5880 5881 5882
5873 5873 5873 5873 5872 5871 5871 5870 5870 5869 5869 5868 5868 5868 5867 5867 5867 5867 5867 5867 5867 5867 5867 5867 5867 5867 5868 5868 5869 5869 5869 5870 5870 5870 5871 5872 5873 5874 5874 5875 5875 5876 5877 5877 5878 5879 5880 5880 5881
5872 5872 5873 5872 5871 5871 5870 5869 5869 5868 5868 5867 5867 5867 5866 5866 5866 5866 5865 5865 5865 5865 5865 5865 5866 5866 5866 5867 5867 5867 5867 5867 5867 5868 5869 5870 5871 5872 5873 5873 5874 5875 5875 5876 5877 5878 5878 5879 5880
5872 5872 5872 5872 5870 5870 5869 5868 5868 5867 5867 5866 5866 5866 5865 5865 5865 5865 5864 5864 5864 5864 5864 5864 5864 5864 5865 5865 5865 5865 5865 5865 5865 5865 5867 5868 5869 5870 5871 5872 5872 5873 5874 5875 5875 5876 5877 5878 5878
5872 5872 5872 5870 5869 5869 5868 5868 5867 5866 5866 5865 5865 5865 5864 5864 5864 5863 5863 5863 5863 5863 5863 5863 5863 5863 5863 5863 5863 5863 5863 5863 5863 5864 5865 5866 5867 5868 5869 5870 5871 5871 5872 5873 5874 5875 5875 5876 5876
5872 5871 5871 5870 5869 5868 5867 5867 5866 5865 5865 5864 5864 5864 5863 5863 5863 5863 5862 5862 5862 5862 5861 5861 5861 5862 5861 5862 5862 5862 5862 5862 5861 5862 5864 5865 5866 5867 5867 5868 5869 5870 5870 5871 5872 5873 5873 5874 5874
5872 5871 5870 5869 5869 5868 5867 5866 5865 5865 5864 5864 5863 5863 5862 5862 5862 5862 5861 5861 5861 5861 5860 5860 5860 5860 5860 5860 5860 5860 5861 5861 5861 5861 5862 5863 5864 5865 5865 5866 5867 5868 5869 5869 5870 5871 5871 5872 5872
5871 5871 5870 5869 5868 5868 5867 5866 5865 5864 5864 5863 5863 5862 5862 5862 5861 5861 5860 5860 5860 5860 5860 5859 5859 5859 5859 5859 5859 5859 5859 5859 5860 5860 5861 5862 5862 5863 5864 5864 5865 5866 5867 5867 5868 5869 5869 5870 5870
5870 5871 5869 5869 5868 5867 5866 5865 5864 5863 5863 5862 5862 5862 5861 5860 5860 5860 5860 5859 5859 5859 5859 5858 5858 5858 5858 5858 5857 5858 5858 5858 5858 5859 5859 5860 5861 5861 5862 5863 5863 5864 5865 5866 5866 5867 5867 5868 5868
5870 5870 5869 5868 5867 5867 5866 5865 5864 5863 5862 5862 5861 5861 5860 5859 5859 5859 5859 5859 5858 5858 5858 5858 5857 5857 5856 5856 5856 5856 5856 5857 5857 5857 5858 5858 5859 5859 5860 5861 5861 5862 5863 5864 5864 5865 5865 5866 5866
5869 5869 5868 5867 5866 5866 5865 5864 5863 5863 5862 5861 5860 5860 5859 5859 5858 5858 5858 5858 5857 5857 5857 5857 5856 5856 5855 5855 5855 5855 5855 5855 5856 5856 5856 5857 5857 5858 5858 5859 5859 5860 5861 5862 5862 5863 5863 5864 5864
5868 5868 5867 5867 5866 5865 5864 5864 5863 5862 5861 5860 5860 5859 5858 5858 5857 5857 5857 5857 5857 5856 5856 5856 5855 5855 5854 5854 5854 5854 5854 5854 5854 5855 5855 5856 5856 5856 5856 5857 5858 5858 5859 5859 5860 5860 5861 5861 5862
5868 5867 5866 5866 5865 5864 5864 5863 5862 5861 5861 5860 5859 5858 5858 5857 5857 5857 5856 5856 5856 5856 5855 5855 5854 5854 5853 5853 5853 5853 5853 5853 5853 5853 5854 5854 5854 5855 5855 5855 5856 5856 5856 5857 5858 5858 5858 5859 5860
5867 5866 5865 5864 5864 5863 5863 5862 5862 5861 5860 5859 5858 5858 5857 5857 5856 5856 5855 5855 5855 5855 5854 5854 5853 5853 5852 5852 5852 5852 5852 5852 5852 5852 5852 5853 5853 5853 5853 5853 5853 5854 5854 5854 5855 5856 5856 5857 5857
5865 5865 5864 5863 5863 5862 5862 5862 5861 5860 5859 5858 5858 5857 5856 5856 5855 5855 5855 5854 5854 5854 5853 5853 5852 5852 5851 5851 5851 5850 5850 5850 5851 5851 5851 5851 5851 5851 5851 5852 5851 5852 5852 5852 5853 5853 5854 5854 5855
5864 5864 5863 5863 5862 5861 5863 5861 5860 5859 5858 5857 5857 5856 5855 5855 5854 5854 5854 5853 5853 5852 5852 5852 5851 5851 5850 5850 5849 5849 5849 5849 5849 5849 5849 5849 5849 5849 5850 5850 5850 5849 5850 5850 5851 5851 5852 5852 5852
5862 5862 5862 5861 5860 5860 5860 5859 5859 5858 5857 5856 5855 5855 5854 5854 5853 5853 5852 5852 5852 5851 5851 5850 5850 5849 5849 5848 5848 5848 5847 5847 5847 5847 5847 5847 5847 5848 5848 5848 5847 5847 5848 5848 5848 5849 5849 5849 5850
5861 5860 5860 5859 5859 5858 5858 5857 5857 5856 5855 5855 5854 5853 5853 5852 5852 5851 5851 5851 5850 5850 5849 5849 5849 5848 5848 5847 5847 5846 5846 5846 5846 5846 5846 5846 5846 5845 5845 5846 5845 5845 5846 5846 5846 5846 5847 5847 5847
5859 5858 5858 5857 5856 5856 5856 5855 5855 5854 5853 5853 5852 5852 5851 5851 5850 5850 5850 5849 5849 5849 5848 5848 5847 5847 5846 5846 5845 5845 5845 5845 5844 5844 5844 5844 5844 5844 5843 5843 5843 5843 5843 5843 5843 5844 5844 5844 5844
5856 5856 5855 5855 5854 5854 5854 5853 5853 5852 5851 5851 5850 5850 5849 5849 5849 5848 5848 5847 5847 5847 5846 5846 5846 5845 5845 5844 5844 5843 5843 5843 5843 5842 5842 5842 5842 5842 5841 5841 5841 5841 5841 5841 5841 5841 5841 5841 5841
5853 5853 5853 5853 5852 5851 5852 5852 5851 5850 5849 5848 5848 5848 5848 5847 5847 5847 5846 5846 5845 5845 5845 5844 5844 5843 5843 5842 5842 5842 5841 5841 5841 5840 5840 5840 5839 5839 5839 5839 5839 5838 5838 5838 5838 5838 5838 5838 5838
5851 5850 5850 5850 5850 5849 5850 5849 5849 5847 5847 5846 5846 5846 5846 5845 5845 5845 5844 5844 5843 5843 5843 5842 5842 5842 5841 5841 5840 5840 5839 5839 5839 5838 5838 5837 5837 5837 5836 5836 5836 5835 5835 5835 5835 5835 5835 5835 5835
5848 5847 5847 5847 5847 5847 5847 5847 5847 5845 5845 5844 5844 5843 5843 5843 5842 5842 5842 5841 5841 5841 5840 5840 5840 5839 5839 5838 5838 5838 5837 5837 5836 5836 5835 5835 5834 5834 5833 5833 5832 5832 5832 5832 5832 5832 5832 5831 5831
5844 5845 5844 5844 5844 5844 5844 5844 5844 5843 5842 5842 5841 5841 5840 5840 5839 5839 5839 5839 5839 5838 5838 5838 5837 5837 5836 5836 5836 5835 5835 5834 5834 5833 5832 5832 5831 5831 5830 5829 5829 5829 5828 5828 5828 5828 5828 5827 5827
5841 5842 5842 5841 5841 5841 5841 5840 5841 5840 5839 5839 5838 5838 5837 5837 5837 5836 5836 5836 5836 5836 5835 5835 5835 5834 5834 5833 5833 5832 5832 5831 5831 5830 5829 5829 5828 5827 5826 5826 5825 5825 5824 5824 5824 5824 5824 5823 5823
5838 5839 5840 5840 5839 5838 5837 5837 5838 5837 5836 5836 5835 5835 5835 5834 5834 5834 5834 5833 5833 5833 5832 5832 5832 5831 5831 5830 5830 5829 5828 5828 5827 5827 5826 5825 5824 5824 5823 5822 5821 5821 5820 5820 5820 5819 5819 5819 5819
5835 5835 5836 5836 5835 5834 5834 5834 5834 5833 5833 5832 5832 5832 5831 5831 5831 5831 5830 5830 5830 5830 5829 5829 5828 5828 5828 5827 5826 5826 5825 5824 5823 5823 5822 5821 5820 5819 5819 5818 5817 5816 5816 5815 5815 5815 5815 5814 5814
5832 5832 5832 5831 5831 5831 5831 5831 5831 5830 5829 5829 5829 5828 5828 5828 5827 5827 5827 5827 5827 5826 5826 5825 5825 5824 5824 5823 5822 5822 5821 5820 5819 5818 5818 5817 5816 5815 5815 5814 5813 5812 5811 5811 5810 5810 5810 5809 5809
5828 5828 5827 5828 5827 5828 5827 5829 5827 5826 5825 5825 5825 5824 5824 5824 5823 5823 5823 5822 5822 5822 5822 5821 5821 5820 5820 5819 5818 5818 5817 5816 5815 5814 5813 5813 5812 5811 5810 5809 5808 5807 5807 5806 5806 5805 5805 5804 5804
5823 5823 5824 5824 5823 5823 5823 5826 5822 5822 5821 5821 5820 5820 5819 5819 5818 5818 5818 5818 5818 5818 5818 5817 5817 5816 5816 5815 5814 5813 5812 5811 5810 5809 5808 5808 5807 5806 5806 5804 5804 5803 5802 5801 5800 5800 5799 5799 5798